Time,TemperatureF,DewpointF,PressureIn,WindDirection,WindDirectionDegrees,WindSpeedMPH,WindSpeedGustMPH,Humidity,HourlyPrecipIn,Conditions,Clouds,dailyrainin,SolarRadiationWatts/m^2,SoftwareType,DateUTC
2013-02-26 00:22:00,16.0,10.0,-100.00,SSW,213,3.0,5.0,77,0.00,,,0.15,0.000000,,2013-02-26 07:22:00,
2013-02-26 00:31:00,16.0,10.0,-100.00,SSW,213,3.0,5.0,77,0.00,,,0.15,0.000000,,2013-02-26 07:31:00,
2013-02-26 01:21:00,15.0,9.0,-100.00,East,95,0.0,7.0,78,-99.99,,,0.15,0.000000,,2013-02-26 08:21:00,
2013-02-26 01:31:00,15.0,9.0,-100.00,East,95,0.0,7.0,78,-99.99,,,0.15,0.000000,,2013-02-26 08:31:00,
2013-02-26 01:41:00,15.0,9.0,-100.00,East,95,0.0,7.0,78,-99.99,,,0.15,0.000000,,2013-02-26 08:41:00,
2013-02-26 01:52:00,15.0,9.0,-100.00,East,95,0.0,7.0,78,-99.99,,,0.15,0.000000,,2013-02-26 08:52:00,
2013-02-26 02:21:00,15.0,9.0,-100.00,WNW,286,4.0,9.0,76,0.00,,,0.15,0.000000,,2013-02-26 09:21:00,
2013-02-26 02:31:00,15.0,9.0,-100.00,WNW,286,4.0,9.0,76,0.00,,,0.15,0.000000,,2013-02-26 09:31:00,
2013-02-26 02:43:00,15.0,9.0,-100.00,WNW,286,4.0,9.0,76,0.00,,,0.15,0.000000,,2013-02-26 09:43:00,
2013-02-26 02:51:00,15.0,9.0,-100.00,WNW,286,4.0,9.0,76,0.00,,,0.15,0.000000,,2013-02-26 09:51:00,
2013-02-26 03:21:00,15.0,8.0,-100.00,West,264,7.0,10.0,74,0.00,,,0.15,0.000000,,2013-02-26 10:21:00,
2013-02-26 03:31:00,15.0,8.0,-100.00,West,264,7.0,10.0,74,0.00,,,0.15,0.000000,,2013-02-26 10:31:00,
2013-02-26 04:21:00,14.0,10.0,-100.00,West,277,6.0,10.0,82,-99.99,,,0.15,0.000000,,2013-02-26 11:21:00,
2013-02-26 04:31:00,14.0,10.0,-100.00,West,277,6.0,10.0,82,-99.99,,,0.15,0.000000,,2013-02-26 11:31:00,
2013-02-26 04:41:00,14.0,10.0,-100.00,West,277,6.0,10.0,82,-99.99,,,0.15,0.000000,,2013-02-26 11:41:00,
2013-02-26 04:52:00,14.0,10.0,-100.00,West,277,6.0,10.0,82,-99.99,,,0.15,0.000000,,2013-02-26 11:52:00,
2013-02-26 05:22:00,14.0,11.0,-100.00,WNW,285,5.0,8.0,88,0.00,,,0.15,0.000000,,2013-02-26 12:22:00,
2013-02-26 05:32:00,14.0,11.0,-100.00,WNW,285,5.0,8.0,88,0.00,,,0.15,0.000000,,2013-02-26 12:32:00,
2013-02-26 05:42:00,14.0,11.0,-100.00,WNW,285,5.0,8.0,88,0.00,,,0.15,0.000000,,2013-02-26 12:42:00,
2013-02-26 05:52:00,14.0,11.0,-100.00,WNW,285,5.0,8.0,88,0.00,,,0.15,0.000000,,2013-02-26 12:52:00,
2013-02-26 06:21:00,13.0,10.0,-100.00,West,274,5.0,7.0,87,0.00,,,0.15,0.000000,,2013-02-26 13:21:00,
2013-02-26 06:31:00,13.0,10.0,-100.00,West,274,5.0,7.0,87,0.00,,,0.15,0.000000,,2013-02-26 13:31:00,
2013-02-26 06:42:00,13.0,10.0,-100.00,West,274,5.0,7.0,87,0.00,,,0.15,0.000000,,2013-02-26 13:42:00,
2013-02-26 06:51:00,13.0,10.0,-100.00,West,274,5.0,7.0,87,0.00,,,0.15,0.000000,,2013-02-26 13:51:00,
2013-02-26 07:21:00,13.0,10.0,-100.00,West,269,3.0,6.0,87,0.00,,,0.15,1.000000,,2013-02-26 14:21:00,
2013-02-26 07:31:00,13.0,10.0,-100.00,West,269,3.0,6.0,87,0.00,,,0.15,1.000000,,2013-02-26 14:31:00,
2013-02-26 07:41:00,13.0,10.0,-100.00,West,269,3.0,6.0,87,0.00,,,0.15,1.000000,,2013-02-26 14:41:00,
2013-02-26 07:52:00,13.0,10.0,-100.00,West,269,3.0,6.0,87,0.00,,,0.15,1.000000,,2013-02-26 14:52:00,
2013-02-26 08:21:00,14.0,11.0,-100.00,East,100,3.0,6.0,86,0.00,,,0.15,9.000000,,2013-02-26 15:21:00,
2013-02-26 08:32:00,14.0,11.0,-100.00,East,100,3.0,6.0,86,0.00,,,0.15,9.000000,,2013-02-26 15:32:00,
2013-02-26 08:41:00,14.0,11.0,-100.00,East,100,3.0,6.0,86,0.00,,,0.15,9.000000,,2013-02-26 15:41:00,
2013-02-26 08:51:00,14.0,11.0,-100.00,East,100,3.0,6.0,86,0.00,,,0.15,9.000000,,2013-02-26 15:51:00,
2013-02-26 09:22:00,17.0,12.0,-100.00,NNE,27,3.0,9.0,82,0.00,,,0.15,39.000000,,2013-02-26 16:22:00,
2013-02-26 09:31:00,17.0,12.0,-100.00,NNE,27,3.0,9.0,82,0.00,,,0.15,39.000000,,2013-02-26 16:31:00,
2013-02-26 09:41:00,17.0,12.0,-100.00,NNE,27,3.0,9.0,82,0.00,,,0.15,39.000000,,2013-02-26 16:41:00,
2013-02-26 09:51:00,17.0,12.0,-100.00,NNE,27,3.0,9.0,82,0.00,,,0.15,39.000000,,2013-02-26 16:51:00,
2013-02-26 10:21:00,24.0,17.0,-100.00,NNE,16,3.0,9.0,74,0.01,,,0.16,94.000000,,2013-02-26 17:21:00,
2013-02-26 12:22:00,23.0,15.0,-100.00,NNE,28,3.0,8.0,72,-99.99,,,0.14,162.000000,,2013-02-26 19:22:00,
2013-02-26 12:31:00,23.0,15.0,-100.00,NNE,28,3.0,8.0,72,-99.99,,,0.14,162.000000,,2013-02-26 19:31:00,
2013-02-26 13:21:00,20.0,13.0,-100.00,North,2,4.0,9.0,73,-99.99,,,0.14,122.000000,,2013-02-26 20:21:00,
2013-02-26 13:31:00,20.0,13.0,-100.00,North,2,4.0,9.0,73,-99.99,,,0.14,122.000000,,2013-02-26 20:31:00,
2013-02-26 13:41:00,20.0,13.0,-100.00,North,2,4.0,9.0,73,-99.99,,,0.14,122.000000,,2013-02-26 20:41:00,
2013-02-26 13:51:00,20.0,13.0,-100.00,North,2,4.0,9.0,73,-99.99,,,0.14,122.000000,,2013-02-26 20:51:00,
2013-02-26 14:21:00,22.0,14.0,-100.00,North,7,4.0,10.0,72,0.01,,,0.12,137.000000,,2013-02-26 21:21:00,
2013-02-26 14:31:00,22.0,14.0,-100.00,North,7,4.0,10.0,72,0.01,,,0.12,137.000000,,2013-02-26 21:31:00,
2013-02-26 14:41:00,22.0,14.0,-100.00,North,7,4.0,10.0,72,0.01,,,0.12,137.000000,,2013-02-26 21:41:00,
2013-02-26 14:51:00,22.0,14.0,-100.00,North,7,4.0,10.0,72,0.01,,,0.12,137.000000,,2013-02-26 21:51:00,
2013-02-26 15:21:00,20.0,12.0,-100.00,NE,41,2.0,7.0,72,0.01,,,0.11,125.000000,,2013-02-26 22:21:00,
2013-02-26 15:31:00,20.0,12.0,-100.00,NE,41,2.0,7.0,72,0.01,,,0.11,125.000000,,2013-02-26 22:31:00,
2013-02-26 15:41:00,20.0,12.0,-100.00,NE,41,2.0,7.0,72,0.01,,,0.11,125.000000,,2013-02-26 22:41:00,
2013-02-26 15:51:00,20.0,12.0,-100.00,NE,41,2.0,7.0,72,0.01,,,0.11,125.000000,,2013-02-26 22:51:00,
2013-02-26 16:21:00,17.0,10.0,-100.00,North,1,3.0,18.0,72,0.01,,,0.10,101.000000,,2013-02-26 23:21:00,
2013-02-26 16:31:00,17.0,10.0,-100.00,North,1,3.0,18.0,72,0.01,,,0.10,101.000000,,2013-02-26 23:31:00,
2013-02-26 16:41:00,17.0,10.0,-100.00,North,1,3.0,18.0,72,0.01,,,0.10,101.000000,,2013-02-26 23:41:00,
2013-02-26 16:51:00,17.0,10.0,-100.00,North,1,3.0,18.0,72,0.01,,,0.10,101.000000,,2013-02-26 23:51:00,
2013-02-26 17:21:00,16.0,9.0,-100.00,North,11,4.0,11.0,75,0.00,,,0.09,79.000000,,2013-02-27 00:21:00,
2013-02-26 17:31:00,16.0,9.0,-100.00,North,11,4.0,11.0,75,0.00,,,0.09,79.000000,,2013-02-27 00:31:00,
2013-02-26 17:41:00,16.0,9.0,-100.00,North,11,4.0,11.0,75,0.00,,,0.09,79.000000,,2013-02-27 00:41:00,
2013-02-26 17:51:00,16.0,9.0,-100.00,North,11,4.0,11.0,75,0.00,,,0.09,79.000000,,2013-02-27 00:51:00,
2013-02-26 18:21:00,12.0,7.0,-100.00,ESE,116,2.0,5.0,81,0.00,,,0.09,14.000000,,2013-02-27 01:21:00,
2013-02-26 18:31:00,12.0,7.0,-100.00,ESE,116,2.0,5.0,81,0.00,,,0.09,14.000000,,2013-02-27 01:31:00,
2013-02-26 18:41:00,12.0,7.0,-100.00,ESE,116,2.0,5.0,81,0.00,,,0.09,14.000000,,2013-02-27 01:41:00,
2013-02-26 18:51:00,12.0,7.0,-100.00,ESE,116,2.0,5.0,81,0.00,,,0.09,14.000000,,2013-02-27 01:51:00,
2013-02-26 19:22:00,12.0,7.0,-100.00,ENE,58,2.0,5.0,81,0.00,,,0.09,1.000000,,2013-02-27 02:22:00,
2013-02-26 19:32:00,12.0,7.0,-100.00,ENE,58,2.0,5.0,81,0.00,,,0.09,1.000000,,2013-02-27 02:32:00,
2013-02-26 19:41:00,12.0,7.0,-100.00,ENE,58,2.0,5.0,81,0.00,,,0.09,1.000000,,2013-02-27 02:41:00,
2013-02-26 19:52:00,12.0,7.0,-100.00,ENE,58,2.0,5.0,81,0.00,,,0.09,1.000000,,2013-02-27 02:52:00,
2013-02-26 20:21:00,11.0,6.0,-100.00,East,90,2.0,6.0,81,0.00,,,0.09,0.000000,,2013-02-27 03:21:00,
2013-02-26 20:32:00,11.0,6.0,-100.00,East,90,2.0,6.0,81,0.00,,,0.09,0.000000,,2013-02-27 03:32:00,
2013-02-26 20:41:00,11.0,6.0,-100.00,East,90,2.0,6.0,81,0.00,,,0.09,0.000000,,2013-02-27 03:41:00,
2013-02-26 20:51:00,11.0,6.0,-100.00,East,90,2.0,6.0,81,0.00,,,0.09,0.000000,,2013-02-27 03:51:00,
2013-02-26 21:11:00,11.0,7.0,-100.00,ESE,121,3.0,9.0,83,0.00,,,0.09,0.000000,,2013-02-27 04:11:00,
2013-02-26 21:21:00,11.0,7.0,-100.00,ESE,121,3.0,9.0,83,0.00,,,0.09,0.000000,,2013-02-27 04:21:00,
2013-02-26 21:31:00,11.0,7.0,-100.00,ESE,121,3.0,9.0,83,0.00,,,0.09,0.000000,,2013-02-27 04:31:00,
2013-02-26 21:41:00,11.0,7.0,-100.00,ESE,121,3.0,9.0,83,0.00,,,0.09,0.000000,,2013-02-27 04:41:00,
2013-02-26 21:51:00,11.0,7.0,-100.00,ESE,121,3.0,9.0,83,0.00,,,0.09,0.000000,,2013-02-27 04:51:00,
2013-02-26 22:22:00,9.0,5.0,-100.00,SE,144,3.0,7.0,84,0.00,,,0.09,0.000000,,2013-02-27 05:22:00,
2013-02-26 22:32:00,9.0,5.0,-100.00,SE,144,3.0,7.0,84,0.00,,,0.09,0.000000,,2013-02-27 05:32:00,
2013-02-26 22:41:00,9.0,5.0,-100.00,SE,144,3.0,7.0,84,0.00,,,0.09,0.000000,,2013-02-27 05:41:00,
2013-02-26 22:52:00,9.0,5.0,-100.00,SE,144,3.0,7.0,84,0.00,,,0.09,0.000000,,2013-02-27 05:52:00,
2013-02-26 23:21:00,9.0,5.0,-100.00,ESE,109,4.0,8.0,84,0.00,,,0.09,0.000000,,2013-02-27 06:21:00,
2013-02-26 23:32:00,9.0,5.0,-100.00,ESE,109,4.0,8.0,84,0.00,,,0.09,0.000000,,2013-02-27 06:32:00,
2013-02-26 23:41:00,9.0,5.0,-100.00,ESE,109,4.0,8.0,84,0.00,,,0.09,0.000000,,2013-02-27 06:41:00,
2013-02-26 23:51:00,9.0,5.0,-100.00,ESE,109,4.0,8.0,84,0.00,,,0.09,0.000000,,2013-02-27 06:51:00,